User: anonymous
Location: Holmes Observatory
(37.1039°N, 122.0513°W)
Time: 13:25:51
(UTC-07:00)
Language:

Cosmos 921 Rocket - Orbit

View from above orbital plane
View from above orbital plane
View from above satellite
View from above satellite

Ground track
Ground track

The orbit data is extracted from the following two-line orbital elements,

1 10096U 77055B   14232.01736784  .00000176  00000-0  21251-4 0  5005
2 10096 075.8357 032.2752 0043660 314.7619 183.5824 14.87840966  8703
Epoch (UTC): 20 August 2014 00:25:00
Eccentricity: 0.0043660
inclination: 75.8357°
perigee height: 574 km
apogee height: 635 km
right ascension of ascending node: 32.2752°
argument of perigee: 314.7619°
revolutions per day: 14.87840966
mean anomaly at epoch: 183.5824°
orbit number at epoch: 870

The dashed part of the orbit path shows where the satellite is in the earth's shadow,  

DLR